Regional Weather Roundup
Issued by NWS Northern Indiana

Home | Current Version | Previous Version | Graphics & Text | Print | Product List | Glossary On
Versions: 1 2 3 4 5 6 7 8 9 10 11 12 13 14 15 16 17 18 19 20 21 22 23 24 25 26 27 28 29 30 31 32 33 34 35 36 37 38 39 40 41 42 43 44 45 46 47 48 49 50
000
ASUS43 KIWX 060600
RWRIWX

KIWX WEATHER ROUNDUP
NATIONAL WEATHER SERVICE NORTHERN INDIANA
200 AM EDT WED MAY 06 2015

NOTE: "FAIR" INDICATES FEW OR NO CLOUDS BELOW 12,000 FEET WITH NO
SIGNIFICANT WEATHER AND/OR OBSTRUCTIONS TO VISIBILITY.

* THESE STATIONS ARE NOT UNDER NWS QUALITY CONTROL. THEY ALSO MAY NOT
  REPORT WEATHER SUCH AS PRECIPITATION OR FOG.

INZ001>027-060700-
NORTHERN INDIANA

CITY           SKY/WX    TMP DP  RH WIND       PRES   REMARKS
SOUTH BEND     CLOUDY    56  54  93 E9        30.22F FOG
6HR MIN TEMP:  55; 6HR MAX TEMP:  58;

GOSHEN         CLOUDY    55  53  93 E6        30.22F FOG
6HR MIN TEMP:  55; 6HR MAX TEMP:  57; 6HR PCP:  0.14;

ANGOLA*        CLOUDY    52  39  62 SE7       30.24F
FORT WAYNE     CLOUDY    54  52  93 E8        30.23F FOG
6HR MIN TEMP:  54; 6HR MAX TEMP:  61;


$$
INZ028>050-060700-
CENTRAL INDIANA

CITY           SKY/WX    TMP DP  RH WIND       PRES   REMARKS
LAFAYETTE      CLEAR     62  61  96 NE5       30.17S FOG
6HR MIN TEMP:  62; 6HR MAX TEMP:  77;

KOKOMO*        CLEAR     57  55  94 E9        30.20S
6HR MIN TEMP:  57; 6HR MAX TEMP:  77;

MUNCIE*        CLEAR     57  54  89 NE6       30.22R FOG
6HR MIN TEMP:  57; 6HR MAX TEMP:  79;

INDIANAPOLIS   MOCLDY    66  53  63 SW3       30.17F
6HR MIN TEMP:  65; 6HR MAX TEMP:  76;


$$
MIZ043>046-050>051-056>058-064>065-071>073-077>080-060700-
SOUTHWEST LOWER MICHIGAN

CITY           SKY/WX    TMP DP  RH WIND       PRES   REMARKS
BATTLE CREEK   CLOUDY    51  50  96 E5        30.24F FOG
6HR MIN TEMP:  51; 6HR MAX TEMP:  52; 6HR PCP:  0.34;

BENTON HARBOR  MOCLDY    52  51  97 E6        30.21F
6HR MIN TEMP:  51; 6HR MAX TEMP:  53; 6HR PCP: TRACE;

COLDWATER*     CLOUDY    51  50  97 SE3       30.24F FOG
6HR MIN TEMP:  51; 6HR MAX TEMP:  52;

HILLSDALE*     CLOUDY    51  51 100 SE7       30.25S FOG
HOLLAND        CLOUDY    53  50  89 E10       30.24S
6HR MIN TEMP:  53; 6HR MAX TEMP:  53; 6HR PCP: TRACE;

GRAND RAPIDS   CLOUDY    53  49  86 E8        30.25F
6HR MIN TEMP:  52; 6HR MAX TEMP:  54;

KALAMAZOO      MOCLDY    52  49  89 E3        30.24F FOG
6HR MIN TEMP:  52; 6HR MAX TEMP:  52; 6HR PCP:  0.03;

STURGIS*       CLOUDY    52  52 100 E6        30.23S FOG
THREE RIVERS*  CLOUDY    53  51  94 E5        30.24S FOG
6HR MIN TEMP:  51; 6HR MAX TEMP:  53;


$$
OHZ001>008-015>018-024>025-060700-
NORTHWEST OHIO

CITY           SKY/WX    TMP DP  RH WIND       PRES   REMARKS
DEFIANCE       CLOUDY    53  51  93 E6        30.25F FOG
6HR MIN TEMP:  53; 6HR MAX TEMP:  56;

FINDLAY        FOG       54  52  93 E7        30.23S VSB 1
6HR MIN TEMP:  53; 6HR MAX TEMP:  59;

TOLEDO EXPRESS CLOUDY    52  51  97 N5        30.27R FOG
6HR MIN TEMP:  51; 6HR MAX TEMP:  53; 6HR PCP:  0.05;

TOLEDO METCALF CLOUDY    52  49  89 NE6       30.27R FOG
6HR MIN TEMP:  52; 6HR MAX TEMP:  53; 6HR PCP:  0.01;

LIMA           FOG       54  54 100 NE6       30.23S VSB 1/2
6HR MIN TEMP:  54; 6HR MAX TEMP:  69;


$$
AND FOR LAKE MICHIGAN COASTAL AND OPEN LAKE BUOY OBSERVATIONS

STATION/POSITION TEMP    WIND        PRES    VSBY  WAVE
                 AIR SEA DIR/SP/G                  HT/PER
                 (F)     (DEG/KT/KT) (MB)    (MI)  (FT/S)
CALUMET HARBOR    45     350/  4/  6   N/A
MICHIGAN CITY     55      70/  4/  6   N/A
BURNS HARBOR      51     240/  2/  4 1023.4S
SAINT JOSEPH      54      70/  1/  6 1023.4F
4 MI NW BRIDGMAN  53 49  150/  6/  8   N/A           1
MICHIGAN CITY     53 50  100/  4/  6   N/A           1/ 3

$$
&&



USA.gov is the U.S. government's official web portal to all federal, state and local government web resources and services.